Lancaster, CA

5:43 PM PDT on May 26, 2017 (GMT -0700)
Gen Fox

Weather History for KWJF - September, 2014

Change the Weather History Date:

Saturday, September 6, 2014

  Actual Average Record
Temperature  
Mean Temperature 78 °F 77 °F  
Max Temperature 98 °F 94 °F 110 °F (1955)
Min Temperature 58 °F 60 °F 45 °F (2000)
Degree Days  
Heating Degree Days 0    
Month to date heating degree days 0  
Since 1 July heating degree days 0  
Cooling Degree Days 13    
Month to date cooling degree days 85  
Year to date cooling degree days 1736  
Growing Degree Days 28 (Base 50)    
Moisture  
Dew Point 41 °F    
Average Humidity 30    
Maximum Humidity 44    
Minimum Humidity 15    
Precipitation  
Precipitation 0.00 in 0.01 in 0.12 in (1971)
Month to date precipitation 0.00 0.02  
Year to date precipitation 2.35 5.12  
Since 1 July precipitation 0.03  
Snow  
Snow 0.00 in - 0.00 in ()
Month to date snowfall 0.0  
Since 1 July snowfall 0.0  
Since 1 September snowfall 0.0  
Snow Depth 0.00 in    
Sea Level Pressure  
Sea Level Pressure 29.90 in    
Wind  
Wind Speed 8 mph (West)    
Max Wind Speed 25 mph    
Max Gust Speed 30 mph    
Visibility 10 miles    
Events      
T = Trace of Precipitation, MM = Missing Value Source: NWS Daily Summary

Daily Weather History Graph

Daily Weather History Graph

Search for Another Location

Airport or City:

Trip Planner

Search our weather history database for the weather conditions in past years. The results will help you decide how hot, cold, wet, or windy it might be!

Date:

Astronomy

Sep. 06, 2014 Rise Set
Actual Time 6:29 AM PDT 7:12 PM PDT
Civil Twilight 6:03 AM PDT 7:37 PM PDT
Nautical Twilight 5:33 AM PDT 8:07 PM PDT
Astronomical Twilight 5:02 AM PDT 8:38 PM PDT
Moon 5:28 PM PDT (9/6) 3:41 AM PDT (9/6)
Length of Visible Light 13h 33m
Length of Day
12h 42m
Waxing Gibbous, 92% of the Moon is Illuminated
Sep 6
Waxing Gibbous
Sep 8
Full
Sep 15
Last Quarter
Sep 23
New
Oct 1
First Quarter

Hourly Weather History & Observations

Time (PDT) Temp. Dew Point Humidity Pressure Visibility Wind Dir Wind Speed Gust Speed Precip Events Conditions
12:56 AM 71.1 °F 44.1 °F 38% 29.91 in 10.0 mi West 11.5 mph - N/A   Clear
1:56 AM 70.0 °F 46.0 °F 42% 29.89 in 10.0 mi West 9.2 mph - N/A   Clear
2:56 AM 64.9 °F 42.1 °F 43% 29.91 in 10.0 mi North 3.5 mph - N/A   Clear
3:56 AM 64.9 °F 34.0 °F 32% 29.91 in 10.0 mi NW 3.5 mph - N/A   Clear
4:56 AM 63.0 °F 34.0 °F 34% 29.91 in 10.0 mi Calm Calm - N/A   Clear
5:56 AM 62.1 °F 35.1 °F 37% 29.93 in 10.0 mi Calm Calm - N/A   Clear
6:56 AM 59.0 °F 34.0 °F 39% 29.95 in 10.0 mi Calm Calm - N/A   Clear
7:56 AM 66.9 °F 35.1 °F 31% 29.97 in 10.0 mi Calm Calm - N/A   Clear
8:56 AM 75.9 °F 34.0 °F 22% 29.97 in 10.0 mi Calm Calm - N/A   Clear
9:56 AM 82.9 °F 34.0 °F 17% 29.97 in 10.0 mi ESE 3.5 mph - N/A   Clear
10:56 AM 88.0 °F 37.0 °F 16% 29.96 in 10.0 mi NE 4.6 mph - N/A   Clear
11:56 AM 91.9 °F 46.9 °F 21% 29.94 in 10.0 mi Variable 5.8 mph - N/A   Clear
12:56 PM 93.0 °F 48.9 °F 22% 29.91 in 10.0 mi Variable 4.6 mph - N/A   Clear
1:56 PM 95.0 °F 48.0 °F 20% 29.88 in 10.0 mi ESE 5.8 mph - N/A   Clear
2:56 PM 98.1 °F 43.0 °F 15% 29.85 in 10.0 mi SW 20.7 mph 27.6 mph N/A   Clear
3:56 PM 97.0 °F 45.0 °F 17% 29.84 in 10.0 mi WSW 19.6 mph 29.9 mph N/A   Clear
4:56 PM 95.0 °F 45.0 °F 18% 29.84 in 10.0 mi WSW 19.6 mph - N/A   Clear
5:56 PM 91.9 °F 46.9 °F 21% 29.84 in 10.0 mi SW 15.0 mph 24.2 mph N/A   Clear
6:56 PM 89.1 °F 51.1 °F 27% 29.84 in 10.0 mi WSW 13.8 mph - N/A   Clear
7:56 PM 86.0 °F 48.0 °F 27% 29.85 in 10.0 mi NW 9.2 mph - N/A   Clear
8:56 PM 84.9 °F 37.9 °F 19% 29.85 in 10.0 mi WSW 15.0 mph - N/A   Clear
9:56 PM 79.0 °F 39.0 °F 24% 29.87 in 10.0 mi West 12.7 mph - N/A   Clear
10:56 PM 75.0 °F 36.0 °F 24% 29.87 in 10.0 mi WNW 5.8 mph - N/A   Clear
11:56 PM 73.9 °F 32.0 °F 21% 29.86 in 10.0 mi West 8.1 mph - N/A   Clear